Stations météo

réclame
Mon MeteoGroup
Örskär, Suède (2488): Température de l'air & dewpoint: 12.01.2019 12:00:00 - 18.01.2019 12:00:00 (CET)Örskär, Suède (2488): Vitesse du vent & gusts: 12.01.2019 12:00:00 - 18.01.2019 12:00:00 (CET)Örskär, Suède (2488): Direction du vent: 12.01.2019 12:00:00 - 18.01.2019 12:00:00 (CET)Örskär, Suède (2488): reduced air pressure: 12.01.2019 12:00:00 - 18.01.2019 12:00:00 (CET)Örskär, Suède (2488): visibility: 12.01.2019 12:00:00 - 18.01.2019 12:00:00 (CET)Örskär, Suède (2488): Quantités de précipitations: 12.01.2019 12:00:00 - 18.01.2019 12:00:00 (CET)
Date & Time tt [°C] td [°C] ff [km/h] ff [knt] fx [km/h] fx [knt] dd ppp [hPa] vv [km] rr [mm]
18.01.2019 12:00:00 -1,6 -4,4 45 24 58 31 W 1000,1 26 0,0
18.01.2019 11:00:00 -2,8 -5,9 45 24 58 31 W 999,7 29 0,0
18.01.2019 10:00:00 -2,6 -5,2 44 24 57 31 W 999,3 37 0,0
18.01.2019 09:00:00 -2,7 -6,0 47 26 58 31 W 998,7 38 0,0
18.01.2019 08:00:00 -2,9 -5,9 48 26 58 31 W 998,3 31 0,0
18.01.2019 07:00:00 -3,9 -6,2 40 22 50 27 W 998,0 39 0,0
18.01.2019 06:00:00 -3,7 -5,9 41 22 49 27 W 997,6 40 0,0
18.01.2019 05:00:00 - - - - 45 25 - - - -
18.01.2019 04:00:00 -4,3 -5,8 34 18 43 23 W 997,0 43 0,0
18.01.2019 03:00:00 -3,5 -4,9 33 18 41 22 W 996,7 45 0,0
18.01.2019 02:00:00 -5,1 -6,5 29 16 48 26 W 996,5 50 0,0
18.01.2019 01:00:00 -2,6 -5,7 34 18 48 26 WNW 996,1 50 0,0
18.01.2019 00:00:00 -4,1 -5,8 31 17 51 28 W 995,9 47 0,0
17.01.2019 23:00:00 -2,9 -5,9 39 21 51 28 WNW 995,5 50 0,0
17.01.2019 22:00:00 -3,1 -6,2 40 22 51 28 WNW 994,8 47 0,0
17.01.2019 21:00:00 -4,0 -6,1 35 19 48 26 W 994,5 44 0,0
17.01.2019 20:00:00 -3,3 -6,4 38 21 50 27 WNW 994,0 48 0,0
17.01.2019 19:00:00 -2,6 -6,1 38 21 56 31 NW 993,3 35 0,0
17.01.2019 18:00:00 -2,4 -5,9 42 23 59 32 NW 992,7 38 0,0
17.01.2019 17:00:00 -2,4 -6,1 48 26 59 32 NNW 992,1 41 0,0
17.01.2019 16:00:00 -2,6 -3,9 34 18 54 29 N 991,3 9 0,0
17.01.2019 15:00:00 -2,6 -4,9 40 21 56 30 N 990,2 14 0,0
17.01.2019 14:00:00 -2,4 -4,4 40 22 58 31 N 989,3 12 0,0
17.01.2019 13:00:00 -2,6 -4,3 45 25 61 33 N 988,7 1,8 0,1
17.01.2019 12:00:00 -2,0 -3,9 50 27 64 35 N 987,5 1,7 0,1
17.01.2019 11:00:00 -1,5 -4,2 49 26 72 39 N 986,5 3,0 0,0
17.01.2019 10:00:00 -1,1 -3,9 58 32 72 39 NNE 984,9 6 0,0
17.01.2019 09:00:00 -0,9 -3,4 51 27 63 34 NNE 983,1 39 0,0
17.01.2019 08:00:00 -1,0 -3,2 46 25 60 33 NNE 982,1 23 0,0
17.01.2019 07:00:00 -1,0 -3,0 46 25 60 33 NNE 980,9 50 0,0
17.01.2019 06:00:00 -0,6 -2,2 45 25 55 30 NNE 980,1 38 0,0
17.01.2019 05:00:00 -0,4 -0,8 46 25 53 28 NNE 979,0 10 0,0
17.01.2019 04:00:00 -1,1 -1,5 30 16 40 21 W 978,2 24 0,0
17.01.2019 03:00:00 -0,9 -1,3 33 18 40 21 W 978,0 41 0,0
17.01.2019 02:00:00 -0,4 -0,7 27 14 31 17 W 977,7 50 0,0
17.01.2019 01:00:00 0,0 -0,3 5 3 47 26 SSW 978,2 5 0,1
17.01.2019 00:00:00 -0,1 -0,3 18 10 50 27 ESE 978,7 3,6 0,1
16.01.2019 23:00:00 -0,4 -0,7 36 19 50 27 E 978,8 4,6 0,2
16.01.2019 22:00:00 -0,7 -1,0 32 18 52 28 E 980,4 2,5 0,5
16.01.2019 21:00:00 -0,9 -1,2 36 19 52 28 E 981,8 1,1 1,1
16.01.2019 20:00:00 -1,1 -1,4 30 16 52 28 ESE 983,5 1,4 1,0
16.01.2019 19:00:00 -1,8 -2,2 35 19 51 27 ESE 985,6 0,7 0,9
16.01.2019 18:00:00 -2,5 -3,0 26 14 39 21 ESE 987,7 1,2 0,9
16.01.2019 17:00:00 -4,4 -5,8 14 7 27 15 SE 990,0 1,7 0,3
16.01.2019 16:00:00 -4,4 -8,2 18 10 27 15 SE 991,4 28 0,0
16.01.2019 15:00:00 -5,1 -8,3 11 6 20 11 SE 993,0 50 0,0
16.01.2019 14:00:00 -5,1 -7,4 13 7 20 11 S 994,4 50 0,0
16.01.2019 13:00:00 -5,3 -7,6 14 8 22 12 S 995,1 50 0,0
16.01.2019 12:00:00 -5,4 -6,8 15 8 18 10 S 996,3 49 0,0
16.01.2019 11:00:00 -6,0 -7,1 12 7 19 10 S 996,6 48 0,0
16.01.2019 10:00:00 -5,9 -6,8 13 7 21 11 SSW 997,2 50 0,0
16.01.2019 09:00:00 -6,1 -7,0 14 8 23 12 SSW 997,5 39 0,0
16.01.2019 08:00:00 -4,5 -5,5 18 10 33 18 W 997,3 34 0,0
16.01.2019 07:00:00 -3,9 -4,9 22 12 33 18 W 997,0 38 0,0
16.01.2019 06:00:00 -4,5 -5,5 22 12 31 17 W 996,7 36 0,0
16.01.2019 05:00:00 -2,4 -5,2 22 12 33 18 W 996,9 50 0,0
16.01.2019 04:00:00 -2,4 -5,2 23 12 35 19 NW 996,7 50 0,0
16.01.2019 03:00:00 -2,2 -5,0 27 15 35 19 NW 996,6 50 0,0
16.01.2019 02:00:00 -2,1 -4,9 27 14 36 19 NW 996,0 47 0,0
16.01.2019 01:00:00 -1,5 -4,3 29 15 36 19 NW 995,4 49 0,0
16.01.2019 00:00:00 -1,4 -5,4 25 13 31 17 NW 994,9 48 0,0
15.01.2019 23:00:00 -1,4 -4,9 23 13 36 19 NNW 994,5 46 0,0
15.01.2019 22:00:00 -1,4 -5,4 29 15 36 19 NNW 994,2 50 0,0
15.01.2019 21:00:00 -1,4 -4,7 27 14 35 19 NW 993,6 45 0,0
15.01.2019 20:00:00 -1,5 -5,4 28 15 35 19 NNW 993,1 44 0,0
15.01.2019 19:00:00 -1,4 -5,1 25 14 34 18 NW 992,7 38 0,0
15.01.2019 18:00:00 -1,5 -5,7 25 13 36 19 NW 992,6 40 0,0
15.01.2019 17:00:00 -1,6 -5,8 26 14 36 20 NW 992,5 31 0,0
15.01.2019 16:00:00 -1,6 -6,0 29 16 38 20 WNW 992,8 43 0,0
15.01.2019 15:00:00 -1,5 -5,5 29 15 44 24 NW 992,8 30 0,0
15.01.2019 14:00:00 -1,3 -5,2 31 17 47 25 NW 992,7 26 0,0
15.01.2019 13:00:00 -1,2 -4,5 38 20 53 29 NW 992,8 28 0,0
15.01.2019 12:00:00 -0,9 -5,1 39 21 58 31 NNW 993,0 30 0,0
15.01.2019 11:00:00 -0,8 -5,0 41 22 68 37 NNW 993,1 20 0,0
15.01.2019 10:00:00 -0,7 -5,1 53 28 76 41 NNW 993,0 31 0,0
15.01.2019 09:00:00 -0,7 -5,5 56 30 80 43 NNW 993,3 16 0,0
15.01.2019 08:00:00 -0,5 -5,5 64 35 83 45 NNW 992,5 17 0,0
15.01.2019 07:00:00 -0,3 -5,3 66 36 91 49 NNW 992,1 16 0,0
15.01.2019 06:00:00 -0,5 -5,3 66 35 95 52 NNW 991,3 13 0,0
15.01.2019 05:00:00 -0,8 -5,8 78 42 96 52 NNW 990,5 15 0,0
15.01.2019 04:00:00 -0,7 -5,1 80 43 97 52 NNW 989,7 13 0,0
15.01.2019 03:00:00 -1,7 -3,1 82 45 99 54 NNW 989,0 1,7 0,0
15.01.2019 02:00:00 -1,3 -3,8 77 42 99 54 NNW 987,8 3,3 0,0
15.01.2019 01:00:00 -2,1 -3,4 79 43 99 54 NNW 987,0 - 0,0
15.01.2019 00:00:00 -2,7 -3,7 80 43 98 53 NW 986,3 0,7 0,0
14.01.2019 23:00:00 -2,2 -4,2 79 43 95 51 NW 985,6 3,4 0,0
14.01.2019 22:00:00 -2,7 -4,1 77 42 94 51 NW 985,1 1,6 0,1
14.01.2019 21:00:00 -2,8 -4,1 75 41 96 52 NNW 984,6 1,0 0,0
14.01.2019 20:00:00 -1,7 -6,3 73 40 96 52 NNW 983,7 6 0,0
14.01.2019 19:00:00 -1,1 -7,5 76 41 92 50 NW 983,0 18 0,0
14.01.2019 18:00:00 -0,9 -7,7 75 41 90 49 NW 982,8 25 0,0
14.01.2019 17:00:00 -0,8 -7,0 71 38 87 47 NW 982,2 25 0,0
14.01.2019 16:00:00 -0,6 -6,6 69 37 86 47 NW 981,5 36 0,0
14.01.2019 15:00:00 -0,5 -7,3 65 35 77 42 NW 980,8 34 0,0
14.01.2019 14:00:00 -0,7 -5,1 54 29 70 38 NW 979,9 28 0,0
14.01.2019 13:00:00 -0,9 -4,6 51 28 66 35 NW 979,2 37 0,0
14.01.2019 12:00:00 -1,2 -5,4 51 28 60 33 WNW 978,5 31 0,0
14.01.2019 11:00:00 -3,3 -7,3 32 17 51 28 W 978,3 36 0,0
14.01.2019 10:00:00 -2,4 -6,6 41 22 64 35 W 978,3 39 0,0
14.01.2019 09:00:00 -2,4 -5,5 38 20 69 37 W 978,4 43 0,0
14.01.2019 08:00:00 -0,9 -5,9 58 31 69 38 WNW 977,9 34 0,0
14.01.2019 07:00:00 -1,4 -6,2 55 30 71 39 NW 977,6 30 0,0
14.01.2019 06:00:00 -1,2 -6,0 58 31 76 41 NW 977,5 30 0,0
14.01.2019 05:00:00 -1,3 -6,4 63 34 77 42 NW 977,4 25 0,0
14.01.2019 04:00:00 -1,3 -6,6 62 33 78 42 NW 977,2 29 0,0
14.01.2019 03:00:00 -1,2 -7,3 67 36 78 42 NW 976,6 30 0,0
14.01.2019 02:00:00 -0,9 -6,1 61 33 73 40 NW 976,2 34 0,0
14.01.2019 01:00:00 -0,6 -5,6 60 33 74 40 NW 975,7 29 0,0
14.01.2019 00:00:00 0,4 -4,4 61 33 77 42 NNW 975,4 42 0,0
13.01.2019 23:00:00 0,9 -3,6 63 34 77 42 NNW 975,0 50 0,0
13.01.2019 22:00:00 1,0 -2,9 58 31 69 37 NNW 974,8 50 0,0
13.01.2019 21:00:00 -0,6 -2,0 31 17 42 23 WNW 974,7 17 0,0
13.01.2019 20:00:00 -1,4 -2,0 22 12 32 17 W 974,7 26 0,2
13.01.2019 19:00:00 -2,2 -3,3 27 14 32 17 SW 974,9 4,0 0,1
13.01.2019 18:00:00 -2,1 -3,1 25 13 35 19 SW 975,2 6 0,1
13.01.2019 17:00:00 -2,2 -3,5 23 12 42 23 SSW 975,5 8 0,1
13.01.2019 16:00:00 -2,2 -3,8 26 14 42 23 SSW 976,0 7 0,0
13.01.2019 15:00:00 -1,9 -3,9 29 16 41 22 SSW 976,6 34 0,0
13.01.2019 14:00:00 -1,9 -4,1 26 14 36 20 S 977,8 50 0,0
13.01.2019 13:00:00 -1,7 -4,4 24 13 36 20 S 979,2 45 0,0
13.01.2019 12:00:00 -1,8 -4,7 25 14 36 19 S 980,5 50 0,0
13.01.2019 11:00:00 -1,4 -5,1 27 15 36 20 SSW 982,1 50 0,0
13.01.2019 10:00:00 -1,5 -5,0 22 12 29 16 S 983,5 50 0,0
13.01.2019 09:00:00 -1,3 -4,5 21 11 28 15 S 984,6 50 0,0
13.01.2019 08:00:00 -1,2 -4,7 18 10 28 15 SSW 985,9 50 0,0
13.01.2019 07:00:00 -1,1 -3,9 19 10 26 14 SSW 986,8 50 0,0
13.01.2019 06:00:00 -1,3 -4,0 19 10 26 14 SSW 988,0 50 0,0
13.01.2019 05:00:00 - - - - 22 12 - - - -
13.01.2019 04:00:00 -1,2 -2,8 16 9 20 11 SSW 990,2 50 0,0
13.01.2019 03:00:00 -1,1 -2,8 10 6 16 9 SSW 991,3 50 0,0
13.01.2019 02:00:00 -1,2 -2,8 13 7 19 10 SW 992,1 50 0,0
13.01.2019 01:00:00 -0,7 -2,4 10 6 21 11 W 992,6 44 0,0
13.01.2019 00:00:00 -0,7 -2,6 18 10 26 14 W 993,6 44 0,0
12.01.2019 23:00:00 -0,9 -2,5 19 11 26 14 W 994,0 50 0,0
12.01.2019 22:00:00 -0,7 -2,3 19 11 22 12 W 994,4 43 0,0
12.01.2019 21:00:00 -0,4 -2,1 16 9 19 10 W 994,8 46 0,0
12.01.2019 20:00:00 -0,1 -1,7 17 9 24 13 W 995,2 35 0,0
12.01.2019 19:00:00 0,2 -1,7 15 8 26 14 WNW 995,5 33 0,0
12.01.2019 18:00:00 0,0 -2,1 19 10 26 14 W 995,5 33 0,0
12.01.2019 17:00:00 0,1 -2,1 21 11 27 14 W 995,7 37 0,0
12.01.2019 16:00:00 0,2 -2,3 23 12 28 15 W 995,9 42 0,0
12.01.2019 15:00:00 0,4 -2,3 21 11 28 15 W 996,3 43 0,0
12.01.2019 14:00:00 0,4 -2,5 21 11 29 16 W 996,5 41 0,0
12.01.2019 13:00:00 0,7 -2,5 23 12 34 18 W 996,8 34 0,0
12.01.2019 12:00:00 0,3 -2,7 27 14 40 22 W 997,3 34 0,0

tt = Température de l'air
td = dewpoint
ff = Vitesse du vent
fx = gusts
dd = Direction du vent
ppp = reduced air pressure
vv = visibility
rr = Quantités de précipitations

stations d'obs. à proximité